{"data":{"norad_id":67416,"intl_designator":"2026-005N","name":"STARLINK-36487","alt_names":[],"object_type":"PAYLOAD","status":"ACTIVE","operator":null,"country":"US","launch_date":"2026-01-12","launch_site_code":"AFETR","launch_vehicle":null,"mission":null,"orbit_class":"UNKNOWN","rcs_meters":null,"size_class":null,"mass_kg":null,"dimensions":null,"purposes":["comms"],"wikipedia_slug":null,"has_3d_model":false,"image_url":null,"decayed_at":null,"tle_current":{"epoch":"2026-05-25T03:04:41.649312Z","epoch_age_seconds":60105,"freshness":"FRESH","line1":"1 67416U 26005N   26145.12825983  .00022434  00000+0  82192-3 0  9992","line2":"2 67416  43.0000 166.5703 0001253 261.5738  98.4971 15.27594136 20388","mean_motion":15.27594136,"eccentricity":0.0001253,"inclination_deg":43,"raan_deg":166.5703,"arg_perigee_deg":261.5738,"mean_anomaly_deg":98.4971,"bstar":0.00082192,"rev_number":2038,"period_min":94.265876391136,"perigee_km":482.14706678253,"apogee_km":483.86646941081,"semimajor_km":6861.1437680967,"source":"CELESTRAK","updated_at":"2026-05-25T13:38:21.554968Z"}}}